When you browse on this site, cookies collect data to enhance your experience and personalize the content and advertising you see.
Visit our Privacy Policy to learn more. By continuing to use the site, you agree to this use of cookies and data.
  • In Romania
  • List of Countries
  • For 7 days
  • Water Temperature
  • Satellite Maps
  • Weather Map
  • Weather Widgets
  • user-avatar
    Login

    Hourly Weather Concord

    Today, 20 February, Wednesday

    Time Temperature Precipitation Wind Pressure Humidity
    00:00 -14°C° 0 mm 2 mps 767 mmHg 78%
    01:00 -14°C° 0 mm 2 mps 767 mmHg 79%
    02:00 -12°C° 0 mm 1 mps 767 mmHg 79%
    03:00 -13°C° 0 mm 1 mps 767 mmHg 79%
    04:00 -13°C° 0 mm 1 mps 767 mmHg 79%
    05:00 -13°C° 0 mm 1 mps 767 mmHg 80%
    06:00 -13°C° 0 mm 1 mps 767 mmHg 80%
    07:00 -13°C° 0 mm 1 mps 767 mmHg 80%
    08:00 -11°C° 0 mm 1 mps 767 mmHg 75%
    09:00 -9°C° 0 mm 1 mps 767 mmHg 69%
    10:00 -7°C° 0 mm 1 mps 766 mmHg 63%
    11:00 -4°C° 0 mm 1 mps 766 mmHg 60%
    12:00 -3°C° 0 mm 1 mps 765 mmHg 57%
    13:00 -1°C° 0 mm 1 mps 765 mmHg 54%
    14:00 -1°C° 0 mm 1 mps 764 mmHg 56%
    15:00 -3°C° 0 mm 2 mps 764 mmHg 58%
    16:00 -2°C° 0 mm 2 mps 763 mmHg 61%
    17:00 -1°C° 0 mm 1 mps 762 mmHg 66%
    18:00 -2°C° 0 mm 1 mps 762 mmHg 72%
    19:00 -3°C° 0 mm 1 mps 761 mmHg 78%
    20:00 -3°C° 0.1 mm 1 mps 761 mmHg 80%
    21:00 -3°C° 0.1 mm 1 mps 760 mmHg 82%
    22:00 -3°C° 0.1 mm 1 mps 760 mmHg 85%
    23:00 -5°C° 1.5 mm 2 mps 758 mmHg 88%

    Tomorrow, 21 February, Thursday

    Time Temperature Precipitation Wind Pressure Humidity
    00:00 -5°C° 1.5 mm 2 mps 757 mmHg 92%
    01:00 -5°C° 1.5 mm 2 mps 756 mmHg 95%
    02:00 -5°C° 1.5 mm 2 mps 754 mmHg 96%
    03:00 -4°C° 1.5 mm 2 mps 752 mmHg 96%
    04:00 -2°C° 1.5 mm 1 mps 751 mmHg 96%
    05:00 -1°C° 0.5 mm 1 mps 750 mmHg 96%
    06:00 0°C° 0.5 mm 1 mps 749 mmHg 96%
    07:00 +1°C° 0.5 mm 1 mps 748 mmHg 97%
    08:00 +2°C° 0 mm 1 mps 747 mmHg 97%
    09:00 +3°C° 0 mm 1 mps 747 mmHg 97%
    10:00 +5°C° 0 mm 1 mps 746 mmHg 97%
    11:00 +4°C° 0 mm 3 mps 746 mmHg 92%
    12:00 +4°C° 0 mm 4 mps 746 mmHg 86%
    13:00 +4°C° 0 mm 6 mps 746 mmHg 81%
    14:00 +3°C° 0 mm 6 mps 747 mmHg 80%
    15:00 +3°C° 0 mm 5 mps 747 mmHg 78%
    16:00 +2°C° 0 mm 5 mps 748 mmHg 77%
    17:00 +1°C° 0 mm 5 mps 748 mmHg 78%
    18:00 0°C° 0 mm 4 mps 749 mmHg 80%
    19:00 -1°C° 0 mm 4 mps 750 mmHg 81%
    20:00 -1°C° 0 mm 4 mps 750 mmHg 81%
    21:00 -2°C° 0 mm 4 mps 751 mmHg 81%
    22:00 -2°C° 0 mm 4 mps 751 mmHg 81%
    23:00 -2°C° 0 mm 4 mps 752 mmHg 81%

    Day after tomorrow, 22 February, Friday

    Time Temperature Precipitation Wind Pressure Humidity
    00:00 -2°C° 0 mm 4 mps 752 mmHg 80%
    01:00 -2°C° 0 mm 5 mps 753 mmHg 80%
    02:00 -3°C° 0 mm 4 mps 753 mmHg 81%
    03:00 -3°C° 0 mm 4 mps 754 mmHg 82%
    04:00 -4°C° 0 mm 4 mps 755 mmHg 84%
    05:00 -4°C° 0 mm 3 mps 756 mmHg 85%
    06:00 -5°C° 0 mm 3 mps 757 mmHg 86%
    07:00 -4°C° 0 mm 2 mps 758 mmHg 88%
    08:00 -4°C° 0 mm 3 mps 758 mmHg 82%
    09:00 -3°C° 0 mm 4 mps 759 mmHg 77%
    10:00 -1°C° 0 mm 4 mps 760 mmHg 72%
    11:00 -1°C° 0 mm 4 mps 760 mmHg 71%
    12:00 0°C° 0 mm 4 mps 760 mmHg 71%
    13:00 0°C° 0 mm 4 mps 760 mmHg 70%
    14:00 0°C° 0 mm 4 mps 760 mmHg 71%
    15:00 0°C° 0 mm 4 mps 760 mmHg 72%
    16:00 0°C° 0 mm 4 mps 761 mmHg 73%
    17:00 -1°C° 0 mm 3 mps 761 mmHg 78%
    18:00 -2°C° 0 mm 2 mps 762 mmHg 82%
    19:00 -3°C° 0 mm 2 mps 763 mmHg 87%
    20:00 -4°C° 0 mm 2 mps 763 mmHg 88%
    21:00 -4°C° 0 mm 2 mps 763 mmHg 88%
    22:00 -3°C° 0 mm 1 mps 764 mmHg 88%
    23:00 -3°C° 0 mm 1 mps 764 mmHg 89%

    23 February, Saturday

    Time Temperature Precipitation Wind Pressure Humidity
    00:00 -4°C° 0 mm 1 mps 764 mmHg 89%
    01:00 -4°C° 0 mm 1 mps 764 mmHg 90%
    02:00 -6°C° 0 mm 1 mps 764 mmHg 90%
    03:00 -6°C° 0 mm 1 mps 764 mmHg 90%
    04:00 -6°C° 0 mm 1 mps 764 mmHg 91%
    05:00 -6°C° 0 mm 1 mps 765 mmHg 90%
    06:00 -6°C° 0 mm 1 mps 765 mmHg 90%
    07:00 -6°C° 0 mm 1 mps 765 mmHg 90%
    08:00 -3°C° 0 mm 1 mps 765 mmHg 84%
    09:00 -1°C° 0 mm 1 mps 764 mmHg 77%
    10:00 +2°C° 0 mm 1 mps 764 mmHg 71%
    11:00 +3°C° 0 mm 1 mps 763 mmHg 70%
    12:00 +3°C° 0 mm 2 mps 762 mmHg 69%
    13:00 +4°C° 0 mm 2 mps 761 mmHg 67%
    14:00 +4°C° 0 mm 2 mps 761 mmHg 70%
    15:00 +4°C° 0 mm 2 mps 760 mmHg 73%
    16:00 +4°C° 0 mm 2 mps 759 mmHg 76%
    17:00 +2°C° 0 mm 2 mps 759 mmHg 81%
    18:00 +2°C° 0 mm 1 mps 758 mmHg 87%
    19:00 0°C° 0 mm 1 mps 758 mmHg 93%
    20:00 +1°C° 0.1 mm 1 mps 757 mmHg 93%
    21:00 +1°C° 0.1 mm 1 mps 756 mmHg 94%
    22:00 +1°C° 0.1 mm 1 mps 755 mmHg 95%
    23:00 +2°C° 1.1 mm 1 mps 754 mmHg 96%

    24 February, Sunday

    Time Temperature Precipitation Wind Pressure Humidity
    00:00 +2°C° 1.1 mm 1 mps 753 mmHg 96%
    01:00 +2°C° 1.1 mm 1 mps 751 mmHg 97%
    02:00 +2°C° 1.6 mm 1 mps 750 mmHg 97%
    03:00 +2°C° 1.6 mm 1 mps 749 mmHg 98%
    04:00 +2°C° 1.6 mm 1 mps 747 mmHg 98%
    05:00 +3°C° 0.4 mm 1 mps 746 mmHg 98%
    06:00 +3°C° 0.4 mm 1 mps 744 mmHg 98%
    07:00 +3°C° 0.4 mm 1 mps 743 mmHg 98%
    08:00 +3°C° 0.2 mm 1 mps 742 mmHg 98%
    09:00 +4°C° 0.2 mm 1 mps 740 mmHg 98%
    10:00 +4°C° 0.2 mm 1 mps 739 mmHg 99%
    11:00 +4°C° 0.4 mm 1 mps 738 mmHg 98%
    12:00 +5°C° 0.4 mm 1 mps 736 mmHg 98%
    13:00 +6°C° 0.4 mm 1 mps 734 mmHg 97%
    14:00 +6°C° 0.3 mm 2 mps 733 mmHg 96%
    15:00 +8°C° 0.3 mm 3 mps 732 mmHg 94%
    16:00 +9°C° 0.3 mm 3 mps 731 mmHg 92%
    17:00 +6°C° 0 mm 4 mps 731 mmHg 89%
    18:00 +5°C° 0 mm 4 mps 732 mmHg 85%
    19:00 +3°C° 0 mm 4 mps 732 mmHg 82%
    20:00 +2°C° 0 mm 5 mps 731 mmHg 80%
    21:00 +1°C° 0 mm 6 mps 731 mmHg 78%
    22:00 +1°C° 0 mm 6 mps 731 mmHg 76%
    23:00 0°C° 0 mm 7 mps 731 mmHg 75%

    25 February, Monday

    Time Temperature Precipitation Wind Pressure Humidity
    00:00 -1°C° 0 mm 7 mps 731 mmHg 73%
    01:00 -1°C° 0 mm 7 mps 731 mmHg 71%
    02:00 -2°C° 0 mm 7 mps 732 mmHg 69%
    03:00 -2°C° 0 mm 8 mps 732 mmHg 68%
    04:00 -2°C° 0 mm 8 mps 733 mmHg 66%
    05:00 -4°C° 0 mm 8 mps 734 mmHg 65%
    06:00 -5°C° 0 mm 8 mps 735 mmHg 63%
    07:00 -5°C° 0 mm 8 mps 736 mmHg 62%
    08:00 -5°C° 0 mm 9 mps 738 mmHg 59%
    09:00 -5°C° 0 mm 10 mps 739 mmHg 56%
    10:00 -5°C° 0 mm 10 mps 741 mmHg 53%
    11:00 -5°C° 0 mm 10 mps 742 mmHg 52%
    12:00 -6°C° 0 mm 11 mps 743 mmHg 51%
    13:00 -6°C° 0 mm 11 mps 745 mmHg 50%
    14:00 -7°C° 0 mm 10 mps 746 mmHg 51%
    15:00 -7°C° 0 mm 10 mps 748 mmHg 52%
    16:00 -8°C° 0 mm 10 mps 749 mmHg 52%
    17:00 -9°C° 0 mm 9 mps 751 mmHg 53%
    18:00 -10°C° 0 mm 9 mps 753 mmHg 53%
    19:00 -11°C° 0 mm 9 mps 754 mmHg 54%
    20:00 -12°C° 0 mm 9 mps 755 mmHg 55%
    21:00 -14°C° 0 mm 9 mps 756 mmHg 55%
    22:00 -15°C° 0 mm 9 mps 758 mmHg 56%
    23:00 -15°C° 0 mm 9 mps 759 mmHg 54%
    Show more